This demonstration page uses our WeatherBlox Daily Observations layout. Learn more.

Left ArrowRight Arrow

39.51506, -84.39828

Hourly Observations for April 4, 2018

Temp ( °F °C ) Dew Point ( °F °C ) Humidity (%) Winds ( mph kmh ) Pressure ( in mb ) Visibility ( mi km ) Precip ( " mm )
12:15 am 00:15 Cloudy 55 12.7 51 10.4 86 86 W 20 31 29.59 1002 10 16 0.00 0.00
12:35 am 00:35 Cloudy 53 11.6 49 9.5 87 87 W 23 37 29.65 1004 10 16 0.00 0.00
12:55 am 00:55 Cloudy with Light Rain 49 9.7 46 7.7 87 87 WNW 22 35 29.68 1005 7 11 0.00 0.00
1:15 am 01:15 Cloudy with Drizzle 47 8.4 44 6.7 89 89 WNW 17 28 29.68 1005 7 11 0.00 0.00
1:35 am 01:35 Cloudy 46 8 43 6.1 88 88 W 17 28 29.68 1005 10 16 0.00 0.00
1:55 am 01:55 Cloudy 46 8 42 5.8 86 86 W 14 22 29.71 1006 10 16 0.00 0.00
2:15 am 02:15 Cloudy 46 7.6 41 4.8 83 83 W 13 20 29.74 1007 10 16 0.00 0.00
2:35 am 02:35 Cloudy 45 7.2 39 4 80 80 W 15 24 29.74 1007 10 16 0.00 0.00
2:50 am 02:50 Cloudy 45 7.1 40 4.2 82 82 W 10 17 29.74 1007 10 16 0.00 0.00
3:15 am 03:15 Cloudy 43 6.3 38 3.2 81 81 W 21 33 29.77 1008 10 16 0.00 0.00
3:35 am 03:35 Cloudy 42 5.8 36 2.2 78 78 W 23 37 29.77 1008 10 16 0.00 0.00
3:55 am 03:55 Cloudy 42 5.3 35 1.6 77 77 W 20 31 29.80 1009 10 16 0.00 0.00
4:15 am 04:15 Cloudy 41 5 33 0.8 75 75 W 24 39 29.80 1009 10 16 0.00 0.00
4:35 am 04:35 Cloudy 40 4.7 32 0.1 72 72 W 23 37 29.83 1010 10 16 0.00 0.00
4:55 am 04:55 Cloudy 40 4.2 31 -0.8 70 70 W 26 43 29.83 1010 10 16 0.00 0.00
5:15 am 05:15 Cloudy 39 4 29 -1.5 68 68 W 23 37 29.83 1010 10 16 0.00 0.00
5:35 am 05:35 Cloudy 39 3.7 29 -1.5 69 69 W 22 35 29.85 1011 10 16 0.00 0.00
5:55 am 05:55 Cloudy 38 3.6 27 -2.6 64 64 W 23 37 29.85 1011 10 16 0.00 0.00
6:15 am 06:15 Cloudy 38 3.4 28 -2.2 67 67 WSW 26 43 29.85 1011 10 16 0.00 0.00
6:35 am 06:35 Cloudy 37 3 27 -2.7 67 67 W 18 30 29.88 1012 10 16 0.00 0.00
6:55 am 06:55 Cloudy 37 2.8 26 -3.1 65 65 W 17 28 29.88 1012 10 16 0.00 0.00
7:15 am 07:15 Cloudy 37 2.7 25 -3.8 63 63 W 28 44 29.91 1013 10 16 0.00 0.00
7:35 am 07:35 Cloudy 37 2.6 25 -3.8 63 63 W 20 31 29.94 1014 10 16 0.00 0.00
7:55 am 07:55 Cloudy with Light Rain 36 2.3 26 -3.6 65 65 W 22 35 29.97 1015 10 16 0.00 0.00
8:15 am 08:15 Cloudy 36 2.2 25 -3.9 64 64 W 21 33 29.97 1015 10 16 0.00 0.00
8:35 am 08:35 Cloudy with Light Rain 36 2.1 24 -4.4 62 62 W 26 43 30.00 1016 10 16 0.00 0.00
8:55 am 08:55 Cloudy with Light Snow 34 1.2 27 -2.6 76 76 W 15 24 30.00 1016 3 5 0.00 0.00
9:15 am 09:15 Cloudy with Light Snow 33 0.6 30 -1.2 88 88 W 13 20 30.00 1016 2 3 0.00 0.00
9:35 am 09:35 Mostly Cloudy with Light Snow 34 1.3 30 -1.2 84 84 WSW 14 22 30.03 1017 7 11 0.00 0.00
9:55 am 09:55 Cloudy 35 1.6 27 -2.9 72 72 W 15 24 30.03 1017 10 16 0.00 0.00
10:15 am 10:15 Mostly Cloudy 35 1.8 26 -3.4 69 69 W 18 30 30.03 1017 10 16 0.00 0.00
10:35 am 10:35 Cloudy 36 2.4 25 -3.9 63 63 W 17 28 30.06 1018 10 16 0.00 0.00
10:55 am 10:55 Cloudy with Light Rain 35 1.8 26 -3.6 68 68 W 15 24 30.06 1018 10 16 0.00 0.00
11:15 am 11:15 Cloudy with Light Rain 37 2.5 26 -3.2 66 66 W 24 39 30.09 1019 10 16 0.00 0.00
11:35 am 11:35 Cloudy with Light Rain 37 2.5 25 -3.8 64 64 W 22 35 30.09 1019 10 16 0.00 0.00
11:55 am 11:55 Cloudy with Light Rain 36 2.3 25 -3.7 65 65 W 22 35 30.12 1020 10 16 0.00 0.00
12:15 pm 12:15 Cloudy 37 2.6 24 -4.6 59 59 W 22 35 30.12 1020 10 16 0.00 0.00
12:35 pm 12:35 Cloudy 36 2.1 25 -3.7 66 66 WSW 22 35 30.12 1020 10 16 0.00 0.00
12:55 pm 12:55 Cloudy 37 2.5 26 -3.3 66 66 WNW 14 22 30.15 1021 10 16 0.00 0.00
1:15 pm 13:15 Cloudy 38 3.1 23 -5 56 56 W 17 28 30.15 1021 10 16 0.00 0.00
1:35 pm 13:35 Cloudy 38 3.2 23 -5 55 55 W 20 31 30.15 1021 10 16 0.00 0.00
1:55 pm 13:55 Cloudy 38 3.3 22 -5.3 54 54 W 17 28 30.15 1021 10 16 0.00 0.00
2:15 pm 14:15 Cloudy 38 3.1 23 -4.9 56 56 W 21 33 30.15 1021 10 16 0.00 0.00
2:35 pm 14:35 Cloudy 37 2.6 23 -5.1 57 57 W 18 30 30.18 1022 10 16 0.00 0.00
2:55 pm 14:55 Cloudy 37 2.5 23 -5.1 58 58 W 15 24 30.18 1022 10 16 0.00 0.00
3:15 pm 15:15 Cloudy 36 2.2 24 -4.7 61 61 W 16 26 30.18 1022 10 16 0.00 0.00
3:35 pm 15:35 Cloudy 37 2.5 24 -4.7 59 59 W 21 33 30.18 1022 10 16 0.00 0.00
3:55 pm 15:55 Cloudy with Light Rain 37 2.9 23 -5.1 56 56 W 23 37 30.21 1023 10 16 0.00 0.00
4:15 pm 16:15 Cloudy 37 2.5 23 -5 58 58 W 23 37 30.21 1023 10 16 0.00 0.00
4:35 pm 16:35 Cloudy with Light Rain 36 2.1 24 -4.3 63 63 W 18 30 30.21 1023 10 16 0.00 0.00
4:55 pm 16:55 Cloudy 36 2.4 23 -5.1 58 58 W 17 28 30.21 1023 10 16 0.00 0.00
5:15 pm 17:15 Cloudy 36 2.2 22 -5.5 57 57 W 20 31 30.21 1023 10 16 0.00 0.00
5:35 pm 17:35 Cloudy 36 2.2 22 -5.4 58 58 W 13 20 30.24 1024 10 16 0.00 0.00
5:55 pm 17:55 Cloudy 36 2.3 22 -5.3 58 58 W 13 20 30.24 1024 10 16 0.00 0.00
6:15 pm 18:15 Cloudy 36 2.3 22 -5.5 57 57 W 9 15 30.24 1024 10 16 0.00 0.00
6:35 pm 18:35 Cloudy 36 2 23 -5 60 60 W 16 26 30.24 1024 10 16 0.00 0.00
6:55 pm 18:55 Cloudy 35 1.9 22 -5.4 59 59 W 13 20 30.27 1025 10 16 0.00 0.00
7:15 pm 19:15 Cloudy 36 2 22 -5.7 57 57 W 10 17 30.27 1025 10 16 0.00 0.00
7:35 pm 19:35 Cloudy 35 1.6 24 -4.5 64 64 W 12 19 30.27 1025 10 16 0.00 0.00
7:55 pm 19:55 Cloudy 35 1.4 24 -4.5 65 65 W 13 20 30.27 1025 10 16 0.00 0.00
8:15 pm 20:15 Cloudy 35 1.4 24 -4.7 64 64 W 14 22 30.27 1025 10 16 0.00 0.00
8:35 pm 20:35 Cloudy with Light Snow 34 1.2 24 -4.3 67 67 W 10 17 30.30 1026 10 16 0.00 0.00
8:55 pm 20:55 Cloudy 34 1.1 24 -4.3 68 68 WSW 13 20 30.30 1026 10 16 0.00 0.00
9:15 pm 21:15 Cloudy 34 1.1 24 -4.2 68 68 W 9 15 30.30 1026 10 16 0.00 0.00
9:35 pm 21:35 Cloudy 34 1 24 -4.5 67 67 W 13 20 30.30 1026 10 16 0.00 0.00
9:55 pm 21:55 Cloudy 34 1 24 -4.6 67 67 W 10 17 30.30 1026 10 16 0.00 0.00
10:15 pm 22:15 Cloudy 34 0.9 23 -5.1 65 65 W 12 19 30.30 1026 10 16 0.00 0.00
10:35 pm 22:35 Cloudy 33 0.8 22 -5.3 64 64 W 10 17 30.30 1026 10 16 0.00 0.00
10:55 pm 22:55 Cloudy 33 0.8 22 -5.3 64 64 WSW 9 15 30.30 1026 10 16 0.00 0.00
11:15 pm 23:15 Cloudy 33 0.8 21 -5.9 61 61 W 9 15 30.30 1026 10 16 0.00 0.00
11:35 pm 23:35 Cloudy 33 0.7 21 -6.2 60 60 WSW 10 17 30.30 1026 10 16 0.00 0.00
11:55 pm 23:55 Cloudy 33 0.6 21 -6.2 61 61 WSW 10 17 30.30 1026 10 16 0.00 0.00

Powered by AerisWeather